Weather History for KGCM - September, 2012

Change the Weather History Date:

Saturday, September 29, 2012

  Actual Average (KTUL) Record (KTUL)
Temperature  
Mean Temperature 66 °F 67 °F  
Max Temperature 71 °F 78 °F 98 °F (1953)
Min Temperature 62 °F 56 °F 37 °F (1916)
Degree Days  
Heating Degree Days 0 2  
Month to date heating degree days 20  
Since 1 July heating degree days 20  
Cooling Degree Days 2 5  
Month to date cooling degree days 259  
Year to date cooling degree days 1960  
Growing Degree Days 16 (Base 50)    
Moisture  
Dew Point 63 °F    
Average Humidity 85    
Maximum Humidity 100    
Minimum Humidity 73    
Precipitation  
Precipitation 0.00 in 0.13 in 4.45 in (1986)
Month to date precipitation 4.13  
Year to date precipitation 31.61  
Sea Level Pressure  
Sea Level Pressure 30.05 in    
Wind  
Wind Speed 7 mph (NE)    
Max Wind Speed 12 mph    
Max Gust Speed -    
Visibility 8 miles    
Events      
T = Trace of Precipitation, MM = Missing Value Source: NWS Daily Summary

Daily Weather History Graph

Daily Weather History Graph

Search for Another Location

Airport or City:

Trip Planner

Search our weather history database for the weather conditions in past years. The results will help you decide how hot, cold, wet, or windy it might be!

Date:

Astronomy

Sep. 29, 2012 Rise Set
Actual Time 7:15 AM CDT 7:07 PM CDT
Civil Twilight 6:50 AM CDT 7:33 PM CDT
Nautical Twilight 6:20 AM CDT 8:03 PM CDT
Astronomical Twilight 5:50 AM CDT 8:33 PM CDT
Moon 6:42 PM CDT (9/29) 6:47 AM CDT (9/29)
Length of Visible Light 12h 43m
Length of Day
11h 51m
Full, 100% of the Moon is Illuminated
Sep 29
Full
Sep 29
Full
Oct 8
Last Quarter
Oct 15
New
Oct 21
First Quarter

Hourly Weather History & Observations

Time (CDT) Temp. Dew Point Humidity Pressure Visibility Wind Dir Wind Speed Gust Speed Precip Events Conditions
12:15 AM 68.0 °F 64.4 °F 88% 30.09 in 10.0 mi NE 6.9 mph - N/A   Clear
12:35 AM 68.0 °F 62.6 °F 83% 30.09 in 7.0 mi NE 8.1 mph - N/A   Clear
12:55 AM 68.0 °F 62.6 °F 83% 30.09 in 7.0 mi NE 6.9 mph - N/A   Scattered Clouds
1:15 AM 66.2 °F 62.6 °F 88% 30.09 in 7.0 mi NE 6.9 mph - N/A   Mostly Cloudy
1:35 AM 66.2 °F 62.6 °F 88% 30.09 in 7.0 mi NE 6.9 mph - N/A   Scattered Clouds
2:15 AM 64.4 °F 62.6 °F 94% 30.09 in 7.0 mi NE 6.9 mph - N/A   Scattered Clouds
2:35 AM 64.4 °F 62.6 °F 94% 30.09 in 5.0 mi NE 6.9 mph - N/A   Clear
2:55 AM 64.4 °F 62.6 °F 94% 30.09 in 7.0 mi NE 8.1 mph - N/A   Clear
3:15 AM 64.4 °F 62.6 °F 94% 30.08 in 7.0 mi NE 6.9 mph - N/A   Scattered Clouds
3:55 AM 64.4 °F 62.6 °F 94% 30.07 in 7.0 mi NE 6.9 mph - N/A   Scattered Clouds
4:15 AM 64.4 °F 62.6 °F 94% 30.07 in 5.0 mi NE 6.9 mph - N/A   Clear
4:35 AM 64.4 °F 62.6 °F 94% 30.06 in 5.0 mi NE 5.8 mph - N/A   Clear
4:55 AM 64.4 °F 62.6 °F 94% 30.07 in 5.0 mi NE 4.6 mph - N/A   Clear
5:15 AM 64.4 °F 62.6 °F 94% 30.07 in 4.0 mi NE 3.5 mph - N/A   Mostly Cloudy
5:35 AM 64.4 °F 62.6 °F 94% 30.06 in 5.0 mi NNE 4.6 mph - N/A   Mostly Cloudy
5:55 AM 64.4 °F 62.6 °F 94% 30.06 in 5.0 mi NE 3.5 mph - N/A   Mostly Cloudy
6:15 AM 64.4 °F 62.6 °F 94% 30.06 in 5.0 mi NE 5.8 mph - N/A   Scattered Clouds
6:35 AM 64.4 °F 62.6 °F 94% 30.06 in 5.0 mi NE 5.8 mph - N/A   Scattered Clouds
6:55 AM 64.4 °F 62.6 °F 94% 30.07 in 4.0 mi NNE 4.6 mph - N/A   Scattered Clouds
7:15 AM 62.6 °F 62.6 °F 100% 30.07 in 4.0 mi NE 5.8 mph - N/A   Mostly Cloudy
7:35 AM 64.4 °F 62.6 °F 94% 30.07 in 4.0 mi NE 4.6 mph - N/A   Mostly Cloudy
7:55 AM 64.4 °F 62.6 °F 94% 30.08 in 4.0 mi ENE 8.1 mph - N/A   Scattered Clouds
8:15 AM 64.4 °F 62.6 °F 94% 30.08 in 5.0 mi ENE 6.9 mph - N/A   Mostly Cloudy
8:35 AM 66.2 °F 62.6 °F 88% 30.08 in 5.0 mi ENE 9.2 mph - N/A   Overcast
9:15 AM 68.0 °F 64.4 °F 88% 30.09 in 5.0 mi NE 5.8 mph - N/A   Overcast
9:35 AM 68.0 °F 64.4 °F 88% 30.09 in 5.0 mi NE 9.2 mph - N/A   Overcast
10:15 AM 69.8 °F 64.4 °F 83% 30.09 in 7.0 mi ENE 6.9 mph - N/A   Scattered Clouds
10:35 AM 69.8 °F 64.4 °F 83% 30.09 in 7.0 mi NE 6.9 mph - N/A   Mostly Cloudy
10:55 AM 69.8 °F 64.4 °F 83% 30.09 in 7.0 mi NE 5.8 mph - N/A   Overcast
11:15 AM 69.8 °F 64.4 °F 83% 30.09 in 7.0 mi NE 5.8 mph - N/A   Overcast
11:35 AM 69.8 °F 64.4 °F 83% 30.09 in 7.0 mi NNE 5.8 mph - N/A   Overcast
11:55 AM 69.8 °F 64.4 °F 83% 30.08 in 7.0 mi NNE 8.1 mph - N/A   Overcast
12:15 PM 69.8 °F 64.4 °F 83% 30.08 in 7.0 mi NNE 8.1 mph - N/A   Overcast
12:35 PM 69.8 °F 64.4 °F 83% 30.07 in 7.0 mi NNE 5.8 mph - N/A   Overcast
12:55 PM 71.6 °F 64.4 °F 78% 30.06 in 7.0 mi NE 6.9 mph - N/A   Mostly Cloudy
1:15 PM 71.6 °F 64.4 °F 78% 30.06 in 7.0 mi NE 8.1 mph - N/A   Scattered Clouds
1:35 PM 71.6 °F 64.4 °F 78% 30.05 in 7.0 mi NE 6.9 mph - N/A   Mostly Cloudy
1:55 PM 71.6 °F 64.4 °F 78% 30.04 in 7.0 mi NNE 8.1 mph - N/A   Overcast
2:15 PM 71.6 °F 64.4 °F 78% 30.03 in 10.0 mi ENE 8.1 mph - N/A   Mostly Cloudy
2:35 PM 71.6 °F 64.4 °F 78% 30.03 in 10.0 mi NE 9.2 mph - N/A   Scattered Clouds
2:55 PM 71.6 °F 64.4 °F 78% 30.03 in 10.0 mi ENE 10.4 mph - N/A   Scattered Clouds
3:15 PM 71.6 °F 64.4 °F 78% 30.03 in 10.0 mi ENE 10.4 mph - N/A   Mostly Cloudy
3:35 PM 71.6 °F 64.4 °F 78% 30.02 in 10.0 mi NE 11.5 mph - N/A   Scattered Clouds
3:55 PM 71.6 °F 64.4 °F 78% 30.02 in 10.0 mi NE 8.1 mph - N/A   Scattered Clouds
4:15 PM 71.6 °F 62.6 °F 73% 30.02 in 10.0 mi ENE 6.9 mph - N/A   Scattered Clouds
4:35 PM 71.6 °F 62.6 °F 73% 30.01 in 10.0 mi NE 8.1 mph - N/A   Scattered Clouds
4:55 PM 71.6 °F 64.4 °F 78% 30.01 in 10.0 mi NE 6.9 mph - N/A   Clear
5:15 PM 71.6 °F 64.4 °F 78% 30.01 in 10.0 mi ENE 6.9 mph - N/A   Clear
5:35 PM 71.6 °F 64.4 °F 78% 30.00 in 10.0 mi ENE 6.9 mph - N/A   Scattered Clouds
5:55 PM 71.6 °F 64.4 °F 78% 30.00 in 10.0 mi ENE 6.9 mph - N/A   Scattered Clouds
6:15 PM 71.6 °F 64.4 °F 78% 30.00 in 10.0 mi NE 3.5 mph - N/A   Clear
6:35 PM 69.8 °F 64.4 °F 83% 30.00 in 10.0 mi NE 3.5 mph - N/A   Clear
6:55 PM 69.8 °F 64.4 °F 83% 30.00 in 10.0 mi NE 3.5 mph - N/A   Clear
7:15 PM 69.8 °F 64.4 °F 83% 30.00 in 10.0 mi NNE 3.5 mph - N/A   Clear
7:55 PM 68.0 °F 64.4 °F 88% 30.00 in 10.0 mi North 3.5 mph - N/A   Mostly Cloudy
8:15 PM 68.0 °F 64.4 °F 88% 30.00 in 10.0 mi Calm Calm - N/A   Scattered Clouds
8:35 PM 68.0 °F 64.4 °F 88% 30.01 in 7.0 mi NNE 3.5 mph - N/A   Scattered Clouds
8:55 PM 66.2 °F 64.4 °F 94% 30.01 in 7.0 mi NNE 3.5 mph - N/A   Clear
9:15 PM 66.2 °F 64.4 °F 94% 30.01 in 7.0 mi NNE 3.5 mph - N/A   Scattered Clouds
9:35 PM 68.0 °F 64.4 °F 88% 30.02 in 7.0 mi NNE 3.5 mph - N/A   Scattered Clouds
9:55 PM 68.0 °F 62.6 °F 83% 30.02 in 10.0 mi NE 4.6 mph - N/A   Mostly Cloudy
10:15 PM 68.0 °F 60.8 °F 78% 30.02 in 10.0 mi NE 6.9 mph - N/A   Mostly Cloudy
10:35 PM 68.0 °F 59.0 °F 73% 30.02 in 10.0 mi NE 6.9 mph - N/A   Scattered Clouds
11:15 PM 66.2 °F 59.0 °F 78% 30.02 in 10.0 mi NE 5.8 mph - N/A   Clear
11:35 PM 66.2 °F 57.2 °F 73% 30.02 in 10.0 mi NE 5.8 mph - N/A   Clear
11:55 PM 66.2 °F 57.2 °F 73% 30.02 in 10.0 mi NE 6.9 mph - N/A   Clear